﻿測定場所 (Monitoring sites),日付 (Measurement date),時間 (Measurement time),線量率 最大値 (max) μGy/h,線量率 最小値 (min) μGy/h,線量率 平均値 (average) μGy/h,
足立 (Adachi),2022-03-20,23:01～24:00,0.0309,0.0272,0.0290,
足立 (Adachi),2022-03-20,22:01～23:00,0.0309,0.0270,0.0288,
足立 (Adachi),2022-03-20,21:01～22:00,0.0305,0.0269,0.0286,
足立 (Adachi),2022-03-20,20:01～21:00,0.0303,0.0271,0.0289,
足立 (Adachi),2022-03-20,19:01～20:00,0.0304,0.0270,0.0288,
足立 (Adachi),2022-03-20,18:01～19:00,0.0303,0.0263,0.0283,
足立 (Adachi),2022-03-20,17:01～18:00,0.0306,0.0266,0.0284,
足立 (Adachi),2022-03-20,16:01～17:00,0.0301,0.0267,0.0285,
足立 (Adachi),2022-03-20,15:01～16:00,0.0301,0.0260,0.0283,
足立 (Adachi),2022-03-20,14:01～15:00,0.0302,0.0263,0.0284,
足立 (Adachi),2022-03-20,13:01～14:00,0.0306,0.0264,0.0284,
足立 (Adachi),2022-03-20,12:01～13:00,0.0315,0.0270,0.0286,
足立 (Adachi),2022-03-20,11:01～12:00,0.0305,0.0268,0.0289,
足立 (Adachi),2022-03-20,10:01～11:00,0.0307,0.0269,0.0287,
足立 (Adachi),2022-03-20,09:01～10:00,0.0310,0.0266,0.0289,
足立 (Adachi),2022-03-20,08:01～09:00,0.0320,0.0271,0.0285,
足立 (Adachi),2022-03-20,07:01～08:00,0.0306,0.0265,0.0288,
足立 (Adachi),2022-03-20,06:01～07:00,0.0303,0.0270,0.0286,
足立 (Adachi),2022-03-20,05:01～06:00,0.0303,0.0273,0.0287,
足立 (Adachi),2022-03-20,04:01～05:00,0.0305,0.0264,0.0284,
足立 (Adachi),2022-03-20,03:01～04:00,0.0302,0.0262,0.0284,
足立 (Adachi),2022-03-20,02:01～03:00,0.0309,0.0263,0.0285,
足立 (Adachi),2022-03-20,01:01～02:00,0.0305,0.0265,0.0283,
足立 (Adachi),2022-03-20,00:01～01:00,0.0314,0.0270,0.0289,
足立 (Adachi),2022-03-19,23:01～24:00,0.0353,0.0290,0.0313,
足立 (Adachi),2022-03-19,22:01～23:00,0.0471,0.0317,0.0386,
足立 (Adachi),2022-03-19,21:01～22:00,0.0670,0.0443,0.0568,
足立 (Adachi),2022-03-19,20:01～21:00,0.0682,0.0616,0.0647,
足立 (Adachi),2022-03-19,19:01～20:00,0.0696,0.0591,0.0639,
足立 (Adachi),2022-03-19,18:01～19:00,0.0675,0.0576,0.0620,
足立 (Adachi),2022-03-19,17:01～18:00,0.0650,0.0417,0.0555,
足立 (Adachi),2022-03-19,16:01～17:00,0.0451,0.0277,0.0331,
足立 (Adachi),2022-03-19,15:01～16:00,0.0312,0.0269,0.0289,
足立 (Adachi),2022-03-19,14:01～15:00,0.0313,0.0274,0.0290,
足立 (Adachi),2022-03-19,13:01～14:00,0.0311,0.0275,0.0292,
足立 (Adachi),2022-03-19,12:01～13:00,0.0308,0.0266,0.0291,
足立 (Adachi),2022-03-19,11:01～12:00,0.0310,0.0271,0.0290,
足立 (Adachi),2022-03-19,10:01～11:00,0.0308,0.0270,0.0286,
足立 (Adachi),2022-03-19,09:01～10:00,0.0309,0.0271,0.0289,
足立 (Adachi),2022-03-19,08:01～09:00,0.0307,0.0273,0.0290,
足立 (Adachi),2022-03-19,07:01～08:00,0.0310,0.0269,0.0286,
足立 (Adachi),2022-03-19,06:01～07:00,0.0311,0.0264,0.0286,
足立 (Adachi),2022-03-19,05:01～06:00,0.0302,0.0267,0.0285,
足立 (Adachi),2022-03-19,04:01～05:00,0.0315,0.0273,0.0294,
足立 (Adachi),2022-03-19,03:01～04:00,0.0314,0.0284,0.0297,
足立 (Adachi),2022-03-19,02:01～03:00,0.0349,0.0292,0.0319,
足立 (Adachi),2022-03-19,01:01～02:00,0.0427,0.0332,0.0370,
足立 (Adachi),2022-03-19,00:01～01:00,0.0492,0.0397,0.0442,
足立 (Adachi),2022-03-18,23:01～24:00,0.0524,0.0412,0.0469,
足立 (Adachi),2022-03-18,22:01～23:00,0.0525,0.0436,0.0487,
足立 (Adachi),2022-03-18,21:01～22:00,0.0498,0.0420,0.0453,
足立 (Adachi),2022-03-18,20:01～21:00,0.0507,0.0435,0.0470,
足立 (Adachi),2022-03-18,19:01～20:00,0.0508,0.0411,0.0454,
足立 (Adachi),2022-03-18,18:01～19:00,0.0455,0.0382,0.0413,
足立 (Adachi),2022-03-18,17:01～18:00,0.0412,0.0327,0.0370,
足立 (Adachi),2022-03-18,16:01～17:00,0.0389,0.0341,0.0363,
足立 (Adachi),2022-03-18,15:01～16:00,0.0398,0.0306,0.0344,
足立 (Adachi),2022-03-18,14:01～15:00,0.0349,0.0304,0.0325,
足立 (Adachi),2022-03-18,13:01～14:00,0.0414,0.0324,0.0360,
足立 (Adachi),2022-03-18,12:01～13:00,0.0406,0.0283,0.0358,
足立 (Adachi),2022-03-18,11:01～12:00,0.0313,0.0266,0.0293,
足立 (Adachi),2022-03-18,10:01～11:00,0.0312,0.0268,0.0289,
足立 (Adachi),2022-03-18,09:01～10:00,0.0311,0.0277,0.0291,
足立 (Adachi),2022-03-18,08:01～09:00,0.0306,0.0272,0.0290,
足立 (Adachi),2022-03-18,07:01～08:00,0.0322,0.0275,0.0291,
足立 (Adachi),2022-03-18,06:01～07:00,0.0314,0.0274,0.0297,
足立 (Adachi),2022-03-18,05:01～06:00,0.0320,0.0285,0.0301,
足立 (Adachi),2022-03-18,04:01～05:00,0.0346,0.0287,0.0321,
足立 (Adachi),2022-03-18,03:01～04:00,0.0447,0.0332,0.0374,
足立 (Adachi),2022-03-18,02:01～03:00,0.0493,0.0390,0.0436,
足立 (Adachi),2022-03-18,01:01～02:00,0.0514,0.0446,0.0481,
足立 (Adachi),2022-03-18,00:01～01:00,0.0529,0.0327,0.0413,
足立 (Adachi),2022-03-17,23:01～24:00,0.0359,0.0295,0.0321,
足立 (Adachi),2022-03-17,22:01～23:00,0.0349,0.0297,0.0318,
足立 (Adachi),2022-03-17,21:01～22:00,0.0354,0.0297,0.0324,
足立 (Adachi),2022-03-17,20:01～21:00,0.0324,0.0274,0.0302,
足立 (Adachi),2022-03-17,19:01～20:00,0.0326,0.0276,0.0300,
足立 (Adachi),2022-03-17,18:01～19:00,0.0318,0.0267,0.0295,
足立 (Adachi),2022-03-17,17:01～18:00,0.0317,0.0281,0.0298,
足立 (Adachi),2022-03-17,16:01～17:00,0.0321,0.0280,0.0296,
足立 (Adachi),2022-03-17,15:01～16:00,0.0316,0.0280,0.0298,
足立 (Adachi),2022-03-17,14:01～15:00,0.0317,0.0274,0.0296,
足立 (Adachi),2022-03-17,13:01～14:00,0.0319,0.0279,0.0296,
足立 (Adachi),2022-03-17,12:01～13:00,0.0322,0.0284,0.0300,
足立 (Adachi),2022-03-17,11:01～12:00,0.0327,0.0272,0.0297,
足立 (Adachi),2022-03-17,10:01～11:00,0.0310,0.0274,0.0297,
足立 (Adachi),2022-03-17,09:01～10:00,0.0319,0.0279,0.0299,
足立 (Adachi),2022-03-17,08:01～09:00,0.0315,0.0288,0.0300,
足立 (Adachi),2022-03-17,07:01～08:00,0.0316,0.0282,0.0298,
足立 (Adachi),2022-03-17,06:01～07:00,0.0317,0.0275,0.0298,
足立 (Adachi),2022-03-17,05:01～06:00,0.0333,0.0280,0.0298,
足立 (Adachi),2022-03-17,04:01～05:00,0.0321,0.0277,0.0298,
足立 (Adachi),2022-03-17,03:01～04:00,0.0315,0.0284,0.0298,
足立 (Adachi),2022-03-17,02:01～03:00,0.0318,0.0276,0.0299,
足立 (Adachi),2022-03-17,01:01～02:00,0.0319,0.0284,0.0300,
足立 (Adachi),2022-03-17,00:01～01:00,0.0319,0.0279,0.0301,
足立 (Adachi),2022-03-16,23:01～24:00,0.0321,0.0281,0.0298,
足立 (Adachi),2022-03-16,22:01～23:00,0.0313,0.0278,0.0296,
足立 (Adachi),2022-03-16,21:01～22:00,0.0315,0.0281,0.0297,
足立 (Adachi),2022-03-16,20:01～21:00,0.0320,0.0270,0.0294,
足立 (Adachi),2022-03-16,19:01～20:00,0.0315,0.0273,0.0295,
足立 (Adachi),2022-03-16,18:01～19:00,0.0321,0.0278,0.0297,
足立 (Adachi),2022-03-16,17:01～18:00,0.0322,0.0280,0.0298,
足立 (Adachi),2022-03-16,16:01～17:00,0.0325,0.0281,0.0298,
足立 (Adachi),2022-03-16,15:01～16:00,0.0314,0.0277,0.0296,
足立 (Adachi),2022-03-16,14:01～15:00,0.0319,0.0276,0.0296,
足立 (Adachi),2022-03-16,13:01～14:00,0.0314,0.0268,0.0296,
足立 (Adachi),2022-03-16,12:01～13:00,0.0323,0.0274,0.0298,
足立 (Adachi),2022-03-16,11:01～12:00,0.0318,0.0274,0.0298,
足立 (Adachi),2022-03-16,10:01～11:00,0.0318,0.0274,0.0300,
足立 (Adachi),2022-03-16,09:01～10:00,0.0324,0.0285,0.0302,
足立 (Adachi),2022-03-16,08:01～09:00,0.0325,0.0285,0.0302,
足立 (Adachi),2022-03-16,07:01～08:00,0.0323,0.0284,0.0303,
足立 (Adachi),2022-03-16,06:01～07:00,0.0322,0.0283,0.0302,
足立 (Adachi),2022-03-16,05:01～06:00,0.0324,0.0277,0.0301,
足立 (Adachi),2022-03-16,04:01～05:00,0.0318,0.0281,0.0302,
足立 (Adachi),2022-03-16,03:01～04:00,0.0324,0.0278,0.0300,
足立 (Adachi),2022-03-16,02:01～03:00,0.0320,0.0284,0.0303,
足立 (Adachi),2022-03-16,01:01～02:00,0.0330,0.0283,0.0303,
足立 (Adachi),2022-03-16,00:01～01:00,0.0321,0.0285,0.0300,
足立 (Adachi),2022-03-15,23:01～24:00,0.0327,0.0288,0.0303,
足立 (Adachi),2022-03-15,22:01～23:00,0.0323,0.0283,0.0301,
足立 (Adachi),2022-03-15,21:01～22:00,0.0317,0.0282,0.0300,
足立 (Adachi),2022-03-15,20:01～21:00,0.0322,0.0281,0.0301,
足立 (Adachi),2022-03-15,19:01～20:00,0.0318,0.0280,0.0300,
足立 (Adachi),2022-03-15,18:01～19:00,0.0330,0.0279,0.0301,
足立 (Adachi),2022-03-15,17:01～18:00,0.0311,0.0279,0.0297,
足立 (Adachi),2022-03-15,16:01～17:00,0.0318,0.0279,0.0299,
足立 (Adachi),2022-03-15,15:01～16:00,0.0313,0.0275,0.0297,
足立 (Adachi),2022-03-15,14:01～15:00,0.0311,0.0274,0.0293,
足立 (Adachi),2022-03-15,13:01～14:00,0.0316,0.0274,0.0297,
足立 (Adachi),2022-03-15,12:01～13:00,0.0321,0.0280,0.0296,
足立 (Adachi),2022-03-15,11:01～12:00,0.0322,0.0280,0.0300,
足立 (Adachi),2022-03-15,10:01～11:00,0.0312,0.0279,0.0296,
足立 (Adachi),2022-03-15,09:01～10:00,0.0316,0.0283,0.0299,
足立 (Adachi),2022-03-15,08:01～09:00,0.0311,0.0267,0.0291,
足立 (Adachi),2022-03-15,07:01～08:00,0.0319,0.0266,0.0297,
足立 (Adachi),2022-03-15,06:01～07:00,0.0339,0.0299,0.0318,
足立 (Adachi),2022-03-15,05:01～06:00,0.0332,0.0283,0.0306,
足立 (Adachi),2022-03-15,04:01～05:00,0.0316,0.0282,0.0298,
足立 (Adachi),2022-03-15,03:01～04:00,0.0322,0.0286,0.0303,
足立 (Adachi),2022-03-15,02:01～03:00,0.0311,0.0277,0.0294,
足立 (Adachi),2022-03-15,01:01～02:00,0.0318,0.0282,0.0298,
足立 (Adachi),2022-03-15,00:01～01:00,0.0313,0.0274,0.0296,
足立 (Adachi),2022-03-14,23:01～24:00,0.0321,0.0269,0.0295,
足立 (Adachi),2022-03-14,22:01～23:00,0.0317,0.0275,0.0298,
足立 (Adachi),2022-03-14,21:01～22:00,0.0317,0.0274,0.0297,
足立 (Adachi),2022-03-14,20:01～21:00,0.0316,0.0277,0.0294,
足立 (Adachi),2022-03-14,19:01～20:00,0.0312,0.0274,0.0295,
足立 (Adachi),2022-03-14,18:01～19:00,0.0314,0.0271,0.0294,
足立 (Adachi),2022-03-14,17:01～18:00,0.0318,0.0275,0.0295,
足立 (Adachi),2022-03-14,16:01～17:00,0.0321,0.0272,0.0293,
足立 (Adachi),2022-03-14,15:01～16:00,0.0328,0.0268,0.0295,
足立 (Adachi),2022-03-14,14:01～15:00,0.0314,0.0267,0.0296,
足立 (Adachi),2022-03-14,13:01～14:00,0.0310,0.0269,0.0291,
足立 (Adachi),2022-03-14,12:01～13:00,0.0310,0.0277,0.0295,
足立 (Adachi),2022-03-14,11:01～12:00,0.0313,0.0275,0.0296,
足立 (Adachi),2022-03-14,10:01～11:00,0.0323,0.0275,0.0297,
足立 (Adachi),2022-03-14,09:01～10:00,0.0324,0.0285,0.0301,
足立 (Adachi),2022-03-14,08:01～09:00,0.0320,0.0280,0.0300,
足立 (Adachi),2022-03-14,07:01～08:00,0.0330,0.0283,0.0306,
足立 (Adachi),2022-03-14,06:01～07:00,0.0334,0.0292,0.0310,
足立 (Adachi),2022-03-14,05:01～06:00,0.0324,0.0284,0.0302,
足立 (Adachi),2022-03-14,04:01～05:00,0.0316,0.0279,0.0295,
足立 (Adachi),2022-03-14,03:01～04:00,0.0310,0.0268,0.0291,
足立 (Adachi),2022-03-14,02:01～03:00,0.0319,0.0278,0.0296,
足立 (Adachi),2022-03-14,01:01～02:00,0.0328,0.0284,0.0303,
足立 (Adachi),2022-03-14,00:01～01:00,0.0322,0.0285,0.0303,
